SCP
0 0 0 0 0 0 0 0 0 0 0 0 0 0 0 0 0 0 0 0 0 0 0 0 0 0 0 0 0 0 0 0 0 0 0 0 0 0 0 0 0 0 0 0 0 0 0 0 0 0 0 0 0 0
0 0 0 0 0 0 0 0 0 0 0 0 0 0 0 0 0 0 0 0 0 0 0 0 0 0 0 0 0 0 0 0 0 0 0 0 0 0 0 0 0 0 0 0 0 0 0 0 0 0 0 0 0 0
0 0 0 0 0 0 0 0 0 0 0 0 0 0 0 0 0 0 0 0 0 0 0 0 0 0 0 0 0 0 0 0 0 0 0 0 0 0 0 0 0 0 0 0 0 0 0 0 0 0 0 0 0 0
0 0 0 0 0 0 0 0 0 0 0 0 0 0 0 0 0 0 0 0 0 0 0 0 0 0 0 0 0 0 0 0 0 0 0 0 0 0 0 0 0 0 0 0 0 0 0 0 0 0 0 0 0 0
0 0 0 0 0 0 0 0 0 0 0 0 0 0 0 0 0 0 0 0 0 0 0 0 0 0 0 0 0 0 0 0 0 0 0 0 0 0 0 0 0 0 0 0 0 0 0 0 0 0 0 0 0 0
0 0 0 0 0 0 0 0 0 0 0 0 0 0 0 0 0 0 0 0 0 0 0 0 0 0 0 0 0 0 0 0 0 0 0 0 0 0 0 0 0 0 0 0 0 0 0 0 0 0 0 0 0 0
0 0 0 0 0 0 0 0 0 0 0 0 0 0 0 0 0 0 0 0 0 0 0 0 0 0 0 0 0 0 0 0 0 0 0 0 0 0 0 0 0 0 0 0 0 0 0 0 0 0 0 0 0 0
0 0 0 0 0 0 0 0 0 0 0 0 0 0 0 0 0 0 0 0 0 0 0 0 0 0 0 0 0 0 0 0 0 0 0 0 0 0 0 0 0 0 0 0 0 0 0 0 0 0 0 0 0 0
0 0 0 0 0 0 0 0 0 0 0 0 0 0 0 0 0 0 0 0 0 0 0 0 0 0 0 0 0 0 0 0 0 0 0 0 0 0 0 0 0 0 0 0 0 0 0 0 0 0 0 0 0 0
0 0 0 0 0 0 0 0 0 0 0 0 0 0 0 0 0 0 0 0 0 0 0 0 0 0 0 0 0 0 0 0 0 0 0 0 0 0 0 0 0 0 0 0 0 0 0 0 0 0 0 0 0 0
0 0 0 0 0 0 0 0 0 0 0 0 0 0 0 0 0 0 0 0 0 0 0 0 0 0 0 0 0 0 0 0 0 0 0 0 0 0 0 0 0 0 0 0 0 0 0 0 0 0 0 0 0 0
0 0 0 0 0 0 0 0 0 0 0 0 0 0 0 0 0 0 0 0 0 0 0 0 0 0 0 0 0 0 0 0 0 0 0 0 -0 -0 0 0 0 0 0 0 0 0 0 0 0 0 0 0 0 0
0 0 0 0 0 0 0 0 0 0 0 0 0 0 0 0 0 0 0 0 0 0 0 0 0 0 0 0 0 0 0 0 0 0 0 0 0 0 -0 0 0 0 0 0 0 0 0 0 0 0 0 0 0 0
0 0 0 0 0 0 0 0 0 0 0 0 0 0 0 0 0 0 0 0 0 0 0 0 0 0 0 0 0 0 0 0 0 0 0 -0 0 0 0 -0 0 0 0 0 0 0 0 0 0 0 0 0 0 0
0 0 0 0 0 0 0 0 0 0 0 0 0 0 0 0 0 0 0 0 0 0 0 0 0 0 0 0 0 0 0 0 0 -0 0 0 0 0 0 0 0 0 0 0 0 0 0 0 0 0 0 0 0 0
0 0 0 0 0 0 0 0 0 0 0 0 0 0 0 0 0 0 0 0 0 0 0 0 0 0 0 0 0 0 0 0 0 0 0 0 0 0 0 0 0 0 0 0 0 0 0 0 0 0 0 0 0 0
0 0 0 0 0 0 0 0 0 0 0 0 0 0 0 0 0 0 0 0 0 0 0 0 0 0 0 0 0 0 0 0 0 -0 -0 0 0 -0 -0 -0 -0 0 0 0 0 0 0 0 0 0 0 0 0 0
0 0 0 0 0 0 0 0 0 0 0 0 0 0 0 0 0 0 0 0 0 0 0 0 0 0 0 0 0 0 0 -0 -0 -0 -0 -0 -0 -0 0 0 -0 -0 0 0 0 0 0 0 0 0 0 0 0 0
-0 0 0 0 0 0 0 0 0 0 0 0 0 0 0 0 0 0 0 0 0 0 0 0 0 0 0 0 0 0 0 0 -0 -0 0 0 -0 0 0 0 -0 0 0 0 0 0 0 0 0 0 0 0 0 0
0 -0 -0 0 0 0 0 0 0 0 0 0 0 0 0 0 0 0 0 0 0 0 0 0 0 0 0 0 0 0 0 0 0 0 0 0 0 0 0 0 0 0 0 0 0 0 0 0 0 0 0 0 0 0
0 0 0 0 0 0 0 0 0 0 0 0 0 0 0 0 0 0 0 0 0 0 0 0 0 0 0 0 0 0 -0 0 0 0 0 0 0 0 0 0 0 0 0 0 0 0 0 0 0 0 0 0 0 0
0 0 0 0 0 0 0 0 0 0 0 0 0 0 0 0 0 0 0 0 0 0 0 0 0 0 0 0 0 0 0 0 0 0 0 0 0 0 0 0 0 0 0 0 0 0 0 0 0 0 0 0 0 0
0 0 0 0 0 0 0 0 0 0 0 0 0 -0 -0 0 0 0 0 0 0 0 0 0 0 0 0 0 0 0 -0 0 0 0 0 0 0 0 0 0 0 0 0 0 -0 0 0 0 0 0 0 0 0 0
0 0 0 -0 -0 -0 -0 0 0 0 0 0 -0 -0 -0 0 0 0 -0 0 0 0 0 0 0 0 0 0 -0 -0 0 0 0 0 -0 -0 0 0 0 0 0 0 -0 0 0 0 0 0 0 0 0 0 0 0
0 -0 -0 -0 -0 -0 0 -0 -0 -0 -0 0 0 0 0 0 -0 -0 0 0 0 0 0 0 0 0 0 0 0 0 0 -0 0 0 0 0 -0 0 0 0 0 0 -0 0 0 0 0 0 0 0 0 0 0 0
-0 -0 0 -0 -0 0 0 0 0 -0 0 -0 -0 0 0 0 -0 -0 0 0 0 0 0 0 0 0 0 0 0 0 0 0 0 0 0 0 0 0 -0 0 0 0 -0 0 0 0 0 0 0 0 0 0 0 0
-0 0 -0 0 0 -0 0 0 -0 -0 0 0 0 0 0 -0 -0 0 -0 -0 -0 0 0 0 0 0 0 0 0 0 0 0 0 0 0 0 0 0 0 0 0 0 0 0 0 0 0 0 0 0 0 0 0 0
-0 -0 0 -0 -0 -0 0 0 0 0 0 0 0 0 0 -0 0 -0 -0 -0 0 0 0 0 0 0 0 0 0 0 0 0 0 0 0 0 0 0 0 0 -0 0 0 0 0 0 0 0 0 0 0 0 0 0
0 0 -0 0 -0 -0 0 0 0 0 0 0 0 -0 -0 -0 0 -0 0 0 -0 -0 -0 0 0 0 0 0 0 0 0 0 0 0 0 0 -0 0 0 0 0 0 0 0 0 0 0 0 0 0 0 0 0 0
0 0 0 -0 0 0 0 0 0 0 0 -0 0 0 0 0 0 0 -0 0 0 0 0 0 0 0 0 0 0 0 0 0 0 0 0 0 0 0 0 0 0 0 0 0 0 0 0 0 0 0 0 0 0 0
0 0 0 0 0 0 0 0 0 0 -0 -0 -0 -0 0 -0 0 0 0 0 0 0 0 0 0 0 0 0 0 0 0 0 0 0 0 0 0 0 0 0 0 0 0 0 0 0 0 0 0 0 0 0 0 0
0 -0 0 0 0 0 0 0 0 -0 0 -0 0 0 0 0 -0 0 0 0 0 0 0 0 0 0 0 0 0 0 0 0 0 0 -0 0 0 0 0 0 0 0 0 0 0 0 0 0 0 0 0 0 0 0
0 -0 0 0 0 -0 -0 0 0 0 0 0 -0 0 -0 0 0 0 0 0 0 0 0 0 0 0 0 0 0 0 0 0 0 0 0 0 0 0 0 0 0 0 0 0 0 0 0 0 0 0 0 0 0 0
Wind_Speed_500mb
24 24 22 20 19 18 17 17 16 16 16 14 13 12 12 12 13 13 12 14 16 11 29 22 14 17 12 3 2 15 8 4 7 5 6 8 7 11 7 10 14 15 13 8 6 5 15 22 13 15 14 15 29 28
23 22 22 21 19 17 16 15 15 15 14 14 14 14 12 12 15 13 14 19 19 21 17 13 21 28 30 25 23 8 7 7 6 5 2 3 5 3 9 8 5 4 15 11 18 14 11 47 18 34 15 17 35 32
22 21 20 21 21 20 19 18 17 16 16 15 15 14 13 13 15 16 8 10 15 20 46 49 48 34 28 34 31 16 13 9 4 1 5 4 6 7 8 11 7 6 13 5 6 8 21 25 51 19 24 28 31 30
23 23 21 19 16 16 14 14 16 17 18 18 17 16 13 11 13 17 10 3 3 6 10 15 20 30 17 27 29 35 50 43 34 19 4 4 4 15 8 6 8 9 12 8 6 14 11 23 32 44 30 31 32 29
20 21 21 19 18 16 14 12 10 11 15 15 15 18 16 12 10 14 13 7 11 14 9 24 53 52 47 47 42 40 44 55 45 20 7 7 8 3 2 3 6 15 13 9 11 22 20 21 21 32 45 46 39 31
25 22 20 18 17 16 14 12 11 11 12 12 12 15 15 13 10 9 7 10 17 24 10 7 20 37 42 44 48 50 44 49 44 23 13 13 19 8 7 10 25 50 45 45 39 35 29 36 28 35 45 48 37 30
27 28 25 22 18 16 14 12 12 12 13 14 10 13 14 14 15 13 3 11 6 7 8 13 15 13 33 27 22 37 46 32 35 28 17 15 16 11 4 18 28 47 50 51 43 29 18 22 27 46 48 42 36 29
25 25 25 25 22 18 15 12 11 12 13 12 12 12 12 14 17 19 19 17 10 3 8 7 10 21 16 12 12 9 18 30 21 23 12 15 16 14 10 19 55 79 73 55 50 45 41 31 33 50 50 49 45 38
18 22 25 24 22 18 15 14 12 13 11 10 12 6 6 7 6 4 9 21 30 17 8 5 3 7 19 15 13 7 6 5 8 13 15 17 7 13 19 38 54 70 74 82 86 76 63 48 46 56 61 56 49 41
22 20 21 23 23 17 15 13 13 12 9 7 4 5 3 2 3 2 2 5 6 10 12 9 5 8 19 15 9 19 8 5 4 11 15 9 23 69 77 74 54 53 57 63 64 62 61 50 49 66 73 61 54 40
18 15 15 17 21 20 16 11 13 13 9 5 4 3 3 7 9 5 6 10 13 7 10 15 42 22 24 9 6 5 2 6 6 8 9 8 12 40 64 83 95 96 84 71 47 54 63 61 47 68 75 63 54 42
22 19 14 15 17 21 15 11 16 16 9 12 4 5 7 9 8 7 5 4 6 6 9 10 14 22 15 14 13 11 7 2 10 21 5 8 8 39 59 63 63 65 74 83 81 53 51 50 45 68 70 64 55 39
22 21 18 22 19 18 17 13 14 18 13 8 3 2 4 6 6 8 11 6 7 8 10 8 8 10 13 13 8 4 9 10 7 5 7 8 44 53 36 40 49 55 58 61 61 66 48 50 52 64 68 62 50 34
20 22 22 25 23 20 21 15 19 21 12 6 7 5 8 8 8 9 8 8 17 8 10 16 12 7 9 6 9 8 9 1 8 7 8 7 43 52 61 60 56 43 45 50 47 52 55 51 50 67 67 61 45 28
22 21 22 25 25 22 23 20 24 27 10 7 7 10 10 16 15 8 9 17 26 36 33 23 15 14 9 7 7 5 7 9 9 9 6 54 81 72 75 74 52 45 36 33 45 44 60 52 52 72 63 48 33 24
19 19 22 22 26 24 24 25 27 29 9 7 12 5 17 16 21 7 11 9 16 35 25 8 5 4 9 5 7 12 7 10 4 8 47 64 78 81 82 85 65 37 33 34 40 46 55 63 73 71 57 43 31 19
23 22 15 21 24 30 33 34 25 13 12 10 13 35 30 21 23 30 29 28 26 21 3 3 4 6 4 7 7 5 2 6 32 51 59 66 73 79 83 78 56 37 38 30 39 51 62 74 76 64 56 44 30 21
27 17 15 26 36 37 37 32 16 12 15 21 12 16 20 25 31 37 36 18 24 22 8 7 6 5 8 7 7 6 14 30 42 46 64 67 63 76 71 66 53 42 41 39 54 70 78 78 67 59 50 42 35 25
20 22 20 30 38 37 19 16 14 8 21 17 28 36 39 43 54 60 58 53 44 41 18 9 9 7 8 17 14 16 28 41 46 55 63 63 55 67 61 54 37 38 43 50 67 78 79 69 60 55 42 37 30 25
23 18 24 24 35 18 8 8 13 12 11 16 26 30 36 39 45 51 57 54 46 31 22 11 11 19 21 29 34 49 48 47 47 56 66 71 59 64 43 26 30 43 52 62 79 79 68 59 49 38 31 31 26 20
18 19 21 40 35 22 8 9 13 13 12 14 22 40 27 30 37 44 55 52 40 24 19 45 49 47 43 52 55 53 50 46 51 53 55 69 68 60 34 12 31 46 66 74 71 64 56 49 43 35 36 29 24 16
19 27 32 43 9 13 14 18 14 8 12 17 15 21 21 22 35 47 44 35 41 53 49 54 58 60 64 66 65 62 54 55 54 53 47 50 54 53 28 19 29 58 57 51 41 52 44 40 40 36 33 34 23 13
17 23 13 17 14 10 11 16 13 11 9 9 13 10 13 17 21 31 16 23 42 63 64 62 62 56 64 67 68 68 59 54 54 53 50 47 39 23 22 27 34 34 31 36 56 45 41 36 33 33 36 29 19 14
20 18 11 9 15 10 7 11 14 11 12 9 6 8 9 14 19 15 10 35 59 59 59 59 65 67 59 63 74 69 59 49 51 54 48 42 27 14 10 28 37 28 42 49 49 37 32 33 36 37 32 25 22 14
9 11 9 12 10 8 7 8 13 10 9 10 9 11 9 8 5 7 14 49 53 59 61 58 58 58 65 58 52 49 44 48 55 52 41 36 25 21 24 36 26 46 49 47 45 40 34 35 41 38 32 29 20 10
4 16 19 15 10 10 10 7 6 7 6 10 14 11 3 4 7 12 7 13 25 33 46 49 62 66 66 63 56 50 52 38 37 41 41 37 38 46 54 46 37 31 43 43 36 37 40 42 38 35 33 26 17 3
8 10 19 21 14 12 11 17 22 10 10 10 6 7 7 8 11 9 9 19 21 15 15 31 32 37 39 38 43 45 34 28 31 30 26 23 32 50 49 54 37 41 41 42 38 36 36 39 41 36 30 23 12 2
19 10 10 11 18 24 14 10 8 8 7 11 7 6 5 8 6 13 19 11 7 9 3 6 15 22 33 40 33 29 25 23 23 20 16 22 36 57 47 22 37 48 41 23 24 27 26 21 20 29 27 19 10 8
14 17 16 16 17 14 10 7 6 12 13 10 6 2 7 11 26 48 23 7 10 14 23 11 22 25 27 28 24 27 28 26 27 26 30 50 47 36 34 47 46 31 23 27 26 20 18 18 23 25 19 12 11 21
16 29 15 4 4 8 11 13 16 29 30 20 12 9 16 15 30 54 40 18 24 25 13 14 28 21 27 27 35 34 25 31 42 39 54 57 59 54 43 29 25 28 23 20 23 29 29 29 28 25 21 12 23 25
10 7 8 12 9 10 14 9 13 18 20 26 25 16 21 21 35 49 44 58 28 14 13 16 20 13 39 34 47 46 27 32 43 54 51 41 40 36 33 30 24 19 16 15 17 18 21 23 21 20 10 16 21 19
16 21 11 6 6 5 8 5 6 9 15 19 30 37 23 24 28 37 50 65 57 47 42 36 25 30 30 33 54 40 39 31 33 47 51 37 43 34 29 25 23 18 15 12 14 18 22 23 19 17 20 23 19 18
13 9 13 5 2 4 5 4 4 2 10 14 18 28 23 17 12 33 44 56 51 52 38 25 34 26 25 41 46 38 41 38 46 40 30 30 37 32 26 21 17 15 16 20 25 24 23 22 24 24 22 21 17 12
Wind_Direction_500mb
236 234 234 234 233 237 242 247 253 259 268 277 287 298 301 288 265 248 239 235 227 239 258 253 233 267 290 346 47 334 356 314 23 90 146 203 173 219 141 204 178 173 157 196 103 159 275 191 125 166 213 178 189 203
231 231 227 221 224 228 232 240 248 256 263 271 279 285 288 293 285 272 213 228 247 253 260 252 240 259 258 260 283 280 270 281 233 103 197 119 216 129 162 238 88 230 186 185 175 207 232 189 208 212 210 203 202 212
228 225 227 230 230 233 238 244 251 255 260 263 267 277 286 289 290 285 259 231 261 276 282 273 272 276 256 247 242 234 250 248 236 44 175 221 228 127 167 235 206 235 172 194 100 253 245 233 219 234 231 220 215 216
217 215 219 223 232 241 245 247 254 258 259 259 260 265 275 287 292 289 280 240 310 299 271 282 243 246 243 219 218 246 248 248 268 275 293 214 208 193 205 209 176 207 150 165 267 283 274 243 236 235 228 219 210 202
215 217 222 223 227 232 237 247 259 267 266 263 262 256 256 263 271 276 266 242 230 233 280 291 286 273 257 256 249 240 245 241 246 230 202 231 239 172 272 98 226 190 186 162 224 262 228 250 253 243 225 218 208 199
218 216 220 220 224 230 234 242 254 268 282 285 265 263 257 249 248 257 228 248 224 230 287 303 307 287 284 262 249 248 248 241 227 208 200 226 233 223 199 219 236 243 249 263 253 275 255 249 267 240 221 211 204 207
223 221 223 221 223 228 233 238 245 257 277 295 306 265 255 244 226 220 223 164 160 194 246 293 285 286 319 311 273 247 233 230 215 208 208 205 214 229 197 245 256 260 264 261 255 227 232 238 223 207 205 204 201 205
222 217 216 215 218 222 233 238 246 253 266 287 303 281 248 246 235 244 229 199 214 247 235 264 276 310 347 319 320 231 203 199 215 215 188 187 218 215 245 222 245 252 254 248 229 231 248 262 223 206 202 197 199 203
216 215 214 213 215 221 227 236 243 247 259 281 299 280 239 230 234 211 231 220 223 223 274 237 276 280 332 7 347 300 264 154 206 212 215 175 199 225 216 222 238 248 241 241 244 246 252 235 224 206 202 198 206 205
211 215 216 216 215 214 218 236 238 232 232 277 219 163 157 127 178 139 159 136 189 208 240 254 259 268 319 334 308 354 349 260 257 239 193 206 242 245 248 247 254 259 263 260 243 241 230 224 218 208 206 212 214 217
204 209 210 208 203 198 217 235 220 209 200 179 156 144 154 182 195 199 221 191 189 230 233 234 225 232 250 209 229 273 345 308 272 287 188 236 253 245 250 246 252 252 253 259 268 258 242 238 235 212 203 208 208 207
206 208 209 195 195 199 206 218 205 190 183 164 160 275 186 189 199 222 219 233 184 230 220 224 242 226 241 233 212 195 178 312 256 347 283 265 296 279 263 254 259 262 255 250 252 258 245 227 230 213 206 201 202 201
212 210 206 195 193 197 201 210 193 186 172 155 258 304 192 190 222 213 179 213 205 206 232 233 264 248 223 233 226 175 206 222 188 213 234 245 296 294 307 301 286 269 258 256 250 238 240 226 222 211 200 197 192 191
212 209 207 203 199 195 194 197 188 183 168 188 167 240 218 205 231 209 184 200 226 253 290 290 280 247 229 200 203 214 219 164 258 227 236 272 341 332 335 322 297 285 260 250 248 228 226 216 208 201 200 190 185 184
212 210 211 205 199 197 193 187 185 184 188 192 205 223 224 244 263 275 261 282 291 301 305 289 253 222 246 258 213 211 205 237 224 239 311 329 327 325 327 332 322 284 272 249 241 227 217 207 202 188 183 179 173 162
202 216 215 202 198 195 187 178 182 192 212 220 228 272 267 288 290 275 257 254 340 338 321 250 263 245 222 224 244 216 218 220 274 305 319 320 325 328 328 322 327 288 267 251 231 217 212 203 187 177 170 171 163 161
202 215 201 191 192 186 182 179 174 201 222 217 227 224 241 275 273 282 297 305 328 316 279 334 261 244 277 219 235 242 347 304 294 307 324 326 328 324 317 314 313 294 261 249 214 201 192 182 171 166 165 164 168 164
203 198 183 168 170 165 175 186 186 227 232 230 232 245 241 244 262 276 287 285 302 307 296 228 268 235 231 230 216 217 252 323 328 322 327 323 321 325 313 306 288 285 249 220 197 185 178 167 168 167 162 166 171 175
189 188 200 183 181 174 176 199 206 250 234 233 243 247 245 255 262 270 276 282 279 271 267 233 216 221 229 226 240 283 302 306 315 317 316 323 325 331 312 302 283 248 220 197 185 173 168 168 166 162 165 172 174 179
176 189 183 183 188 177 200 238 194 241 242 229 231 239 241 251 271 275 276 271 260 254 217 223 197 220 240 264 281 293 299 304 305 305 307 324 325 332 332 304 230 209 187 176 170 166 160 159 162 161 167 169 178 170
185 179 179 189 186 196 227 236 225 237 255 240 255 244 241 241 250 271 270 266 245 227 237 234 238 243 253 268 281 287 293 293 298 303 301 308 317 329 324 261 184 182 174 165 156 159 158 165 162 165 171 176 168 169
187 172 173 179 167 205 247 230 224 230 242 243 248 248 251 245 256 264 263 238 237 243 239 243 244 247 251 261 270 278 287 288 288 292 296 306 310 316 300 202 177 159 145 141 158 171 167 168 162 169 173 172 171 172
184 181 166 188 205 232 252 226 225 226 231 243 239 226 245 233 249 269 223 234 242 244 245 248 252 252 252 261 267 273 279 280 278 288 294 296 301 318 216 176 182 158 165 186 190 171 162 166 170 176 177 173 179 193
174 162 181 203 210 261 240 222 220 244 234 232 234 246 250 237 252 223 239 244 251 251 243 246 244 240 247 255 259 265 265 267 270 282 283 285 282 217 204 177 183 184 183 186 174 170 173 176 182 183 178 185 185 196
151 197 193 223 229 237 242 243 211 220 240 223 228 240 254 240 239 261 255 265 260 251 244 239 235 236 240 250 266 261 260 257 267 267 272 266 255 229 190 185 206 190 210 194 181 185 186 183 176 178 189 191 187 172
198 204 193 207 213 206 225 251 222 225 232 220 232 244 240 215 233 244 241 297 292 263 243 236 230 232 238 248 255 255 264 258 242 259 265 244 238 219 213 209 202 207 203 198 189 179 172 173 180 190 192 185 177 186
243 238 224 229 239 253 256 270 273 261 244 247 226 215 208 230 238 249 303 352 323 298 248 232 245 228 225 234 247 255 244 243 255 251 234 228 230 210 197 180 211 213 184 176 170 174 180 183 188 192 191 182 175 217
230 247 221 237 227 244 253 245 240 263 266 277 244 219 234 229 272 315 293 296 358 358 62 165 197 212 223 237 230 213 228 233 196 202 226 218 198 187 183 198 183 161 157 157 168 168 167 166 183 197 192 185 187 203
235 235 239 260 265 259 247 227 261 245 250 248 289 272 293 285 311 316 2 270 251 273 286 248 216 208 194 189 191 201 202 177 173 165 149 139 154 159 153 156 152 151 171 179 162 164 163 174 186 186 182 178 174 156
248 241 236 240 228 247 239 232 271 308 320 335 306 281 303 309 9 41 42 2 250 257 199 207 193 198 199 189 181 179 154 130 152 158 149 140 138 135 139 147 160 152 156 168 170 161 164 170 172 176 171 163 165 160
251 223 232 234 251 244 256 281 303 339 21 19 7 347 355 1 17 42 29 29 49 122 152 140 165 178 166 157 164 153 129 139 144 140 125 124 125 138 145 132 125 123 133 153 164 173 181 185 186 174 175 166 170 178
204 207 216 256 267 242 251 289 316 350 4 19 16 19 21 7 16 21 17 29 46 69 93 113 127 151 157 165 157 150 130 143 160 153 135 139 148 153 141 124 108 109 122 141 163 175 181 178 183 189 173 166 172 171
236 233 221 226 232 262 244 281 294 22 30 16 21 16 10 7 11 7 11 28 31 48 83 94 119 125 101 117 145 132 116 128 150 148 177 175 153 154 141 123 109 111 110 125 140 152 157 156 155 161 167 173 181 198
Wind_Speed_850mb
24 24 22 20 19 18 17 17 16 16 16 14 13 12 12 12 13 13 12 14 16 11 29 22 14 17 12 3 2 15 8 4 7 5 6 8 7 11 7 10 14 15 13 8 6 5 15 22 13 15 14 15 29 28
23 22 22 21 19 17 16 15 15 15 14 14 14 14 12 12 15 13 14 19 19 21 17 13 21 28 30 25 23 8 7 7 6 5 2 3 5 3 9 8 5 4 15 11 18 14 11 47 18 34 15 17 35 32
22 21 20 21 21 20 19 18 17 16 16 15 15 14 13 13 15 16 8 10 15 20 46 49 48 34 28 34 31 16 13 9 4 1 5 4 6 7 8 11 7 6 13 5 6 8 21 25 51 19 24 28 31 30
23 23 21 19 16 16 14 14 16 17 18 18 17 16 13 11 13 17 10 3 3 6 10 15 20 30 17 27 29 35 50 43 34 19 4 4 4 15 8 6 8 9 12 8 6 14 11 23 32 44 30 31 32 29
20 21 21 19 18 16 14 12 10 11 15 15 15 18 16 12 10 14 13 7 11 14 9 24 53 52 47 47 42 40 44 55 45 20 7 7 8 3 2 3 6 15 13 9 11 22 20 21 21 32 45 46 39 31
25 22 20 18 17 16 14 12 11 11 12 12 12 15 15 13 10 9 7 10 17 24 10 7 20 37 42 44 48 50 44 49 44 23 13 13 19 8 7 10 25 50 45 45 39 35 29 36 28 35 45 48 37 30
27 28 25 22 18 16 14 12 12 12 13 14 10 13 14 14 15 13 3 11 6 7 8 13 15 13 33 27 22 37 46 32 35 28 17 15 16 11 4 18 28 47 50 51 43 29 18 22 27 46 48 42 36 29
25 25 25 25 22 18 15 12 11 12 13 12 12 12 12 14 17 19 19 17 10 3 8 7 10 21 16 12 12 9 18 30 21 23 12 15 16 14 10 19 55 79 73 55 50 45 41 31 33 50 50 49 45 38
18 22 25 24 22 18 15 14 12 13 11 10 12 6 6 7 6 4 9 21 30 17 8 5 3 7 19 15 13 7 6 5 8 13 15 17 7 13 19 38 54 70 74 82 86 76 63 48 46 56 61 56 49 41
22 20 21 23 23 17 15 13 13 12 9 7 4 5 3 2 3 2 2 5 6 10 12 9 5 8 19 15 9 19 8 5 4 11 15 9 23 69 77 74 54 53 57 63 64 62 61 50 49 66 73 61 54 40
18 15 15 17 21 20 16 11 13 13 9 5 4 3 3 7 9 5 6 10 13 7 10 15 42 22 24 9 6 5 2 6 6 8 9 8 12 40 64 83 95 96 84 71 47 54 63 61 47 68 75 63 54 42
22 19 14 15 17 21 15 11 16 16 9 12 4 5 7 9 8 7 5 4 6 6 9 10 14 22 15 14 13 11 7 2 10 21 5 8 8 39 59 63 63 65 74 83 81 53 51 50 45 68 70 64 55 39
22 21 18 22 19 18 17 13 14 18 13 8 3 2 4 6 6 8 11 6 7 8 10 8 8 10 13 13 8 4 9 10 7 5 7 8 44 53 36 40 49 55 58 61 61 66 48 50 52 64 68 62 50 34
20 22 22 25 23 20 21 15 19 21 12 6 7 5 8 8 8 9 8 8 17 8 10 16 12 7 9 6 9 8 9 1 8 7 8 7 43 52 61 60 56 43 45 50 47 52 55 51 50 67 67 61 45 28
22 21 22 25 25 22 23 20 24 27 10 7 7 10 10 16 15 8 9 17 26 36 33 23 15 14 9 7 7 5 7 9 9 9 6 54 81 72 75 74 52 45 36 33 45 44 60 52 52 72 63 48 33 24
19 19 22 22 26 24 24 25 27 29 9 7 12 5 17 16 21 7 11 9 16 35 25 8 5 4 9 5 7 12 7 10 4 8 47 64 78 81 82 85 65 37 33 34 40 46 55 63 73 71 57 43 31 19
23 22 15 21 24 30 33 34 25 13 12 10 13 35 30 21 23 30 29 28 26 21 3 3 4 6 4 7 7 5 2 6 32 51 59 66 73 79 83 78 56 37 38 30 39 51 62 74 76 64 56 44 30 21
27 17 15 26 36 37 37 32 16 12 15 21 12 16 20 25 31 37 36 18 24 22 8 7 6 5 8 7 7 6 14 30 42 46 64 67 63 76 71 66 53 42 41 39 54 70 78 78 67 59 50 42 35 25
20 22 20 30 38 37 19 16 14 8 21 17 28 36 39 43 54 60 58 53 44 41 18 9 9 7 8 17 14 16 28 41 46 55 63 63 55 67 61 54 37 38 43 50 67 78 79 69 60 55 42 37 30 25
23 18 24 24 35 18 8 8 13 12 11 16 26 30 36 39 45 51 57 54 46 31 22 11 11 19 21 29 34 49 48 47 47 56 66 71 59 64 43 26 30 43 52 62 79 79 68 59 49 38 31 31 26 20
18 19 21 40 35 22 8 9 13 13 12 14 22 40 27 30 37 44 55 52 40 24 19 45 49 47 43 52 55 53 50 46 51 53 55 69 68 60 34 12 31 46 66 74 71 64 56 49 43 35 36 29 24 16
19 27 32 43 9 13 14 18 14 8 12 17 15 21 21 22 35 47 44 35 41 53 49 54 58 60 64 66 65 62 54 55 54 53 47 50 54 53 28 19 29 58 57 51 41 52 44 40 40 36 33 34 23 13
17 23 13 17 14 10 11 16 13 11 9 9 13 10 13 17 21 31 16 23 42 63 64 62 62 56 64 67 68 68 59 54 54 53 50 47 39 23 22 27 34 34 31 36 56 45 41 36 33 33 36 29 19 14
20 18 11 9 15 10 7 11 14 11 12 9 6 8 9 14 19 15 10 35 59 59 59 59 65 67 59 63 74 69 59 49 51 54 48 42 27 14 10 28 37 28 42 49 49 37 32 33 36 37 32 25 22 14
9 11 9 12 10 8 7 8 13 10 9 10 9 11 9 8 5 7 14 49 53 59 61 58 58 58 65 58 52 49 44 48 55 52 41 36 25 21 24 36 26 46 49 47 45 40 34 35 41 38 32 29 20 10
4 16 19 15 10 10 10 7 6 7 6 10 14 11 3 4 7 12 7 13 25 33 46 49 62 66 66 63 56 50 52 38 37 41 41 37 38 46 54 46 37 31 43 43 36 37 40 42 38 35 33 26 17 3
8 10 19 21 14 12 11 17 22 10 10 10 6 7 7 8 11 9 9 19 21 15 15 31 32 37 39 38 43 45 34 28 31 30 26 23 32 50 49 54 37 41 41 42 38 36 36 39 41 36 30 23 12 2
19 10 10 11 18 24 14 10 8 8 7 11 7 6 5 8 6 13 19 11 7 9 3 6 15 22 33 40 33 29 25 23 23 20 16 22 36 57 47 22 37 48 41 23 24 27 26 21 20 29 27 19 10 8
14 17 16 16 17 14 10 7 6 12 13 10 6 2 7 11 26 48 23 7 10 14 23 11 22 25 27 28 24 27 28 26 27 26 30 50 47 36 34 47 46 31 23 27 26 20 18 18 23 25 19 12 11 21
16 29 15 4 4 8 11 13 16 29 30 20 12 9 16 15 30 54 40 18 24 25 13 14 28 21 27 27 35 34 25 31 42 39 54 57 59 54 43 29 25 28 23 20 23 29 29 29 28 25 21 12 23 25
10 7 8 12 9 10 14 9 13 18 20 26 25 16 21 21 35 49 44 58 28 14 13 16 20 13 39 34 47 46 27 32 43 54 51 41 40 36 33 30 24 19 16 15 17 18 21 23 21 20 10 16 21 19
16 21 11 6 6 5 8 5 6 9 15 19 30 37 23 24 28 37 50 65 57 47 42 36 25 30 30 33 54 40 39 31 33 47 51 37 43 34 29 25 23 18 15 12 14 18 22 23 19 17 20 23 19 18
13 9 13 5 2 4 5 4 4 2 10 14 18 28 23 17 12 33 44 56 51 52 38 25 34 26 25 41 46 38 41 38 46 40 30 30 37 32 26 21 17 15 16 20 25 24 23 22 24 24 22 21 17 12
Wind_Direction_850mb
236 234 234 234 233 237 242 247 253 259 268 277 287 298 301 288 265 248 239 235 227 239 258 253 233 267 290 346 47 334 356 314 23 90 146 203 173 219 141 204 178 173 157 196 103 159 275 191 125 166 213 178 189 203
231 231 227 221 224 228 232 240 248 256 263 271 279 285 288 293 285 272 213 228 247 253 260 252 240 259 258 260 283 280 270 281 233 103 197 119 216 129 162 238 88 230 186 185 175 207 232 189 208 212 210 203 202 212
228 225 227 230 230 233 238 244 251 255 260 263 267 277 286 289 290 285 259 231 261 276 282 273 272 276 256 247 242 234 250 248 236 44 175 221 228 127 167 235 206 235 172 194 100 253 245 233 219 234 231 220 215 216
217 215 219 223 232 241 245 247 254 258 259 259 260 265 275 287 292 289 280 240 310 299 271 282 243 246 243 219 218 246 248 248 268 275 293 214 208 193 205 209 176 207 150 165 267 283 274 243 236 235 228 219 210 202
215 217 222 223 227 232 237 247 259 267 266 263 262 256 256 263 271 276 266 242 230 233 280 291 286 273 257 256 249 240 245 241 246 230 202 231 239 172 272 98 226 190 186 162 224 262 228 250 253 243 225 218 208 199
218 216 220 220 224 230 234 242 254 268 282 285 265 263 257 249 248 257 228 248 224 230 287 303 307 287 284 262 249 248 248 241 227 208 200 226 233 223 199 219 236 243 249 263 253 275 255 249 267 240 221 211 204 207
223 221 223 221 223 228 233 238 245 257 277 295 306 265 255 244 226 220 223 164 160 194 246 293 285 286 319 311 273 247 233 230 215 208 208 205 214 229 197 245 256 260 264 261 255 227 232 238 223 207 205 204 201 205
222 217 216 215 218 222 233 238 246 253 266 287 303 281 248 246 235 244 229 199 214 247 235 264 276 310 347 319 320 231 203 199 215 215 188 187 218 215 245 222 245 252 254 248 229 231 248 262 223 206 202 197 199 203
216 215 214 213 215 221 227 236 243 247 259 281 299 280 239 230 234 211 231 220 223 223 274 237 276 280 332 7 347 300 264 154 206 212 215 175 199 225 216 222 238 248 241 241 244 246 252 235 224 206 202 198 206 205
211 215 216 216 215 214 218 236 238 232 232 277 219 163 157 127 178 139 159 136 189 208 240 254 259 268 319 334 308 354 349 260 257 239 193 206 242 245 248 247 254 259 263 260 243 241 230 224 218 208 206 212 214 217
204 209 210 208 203 198 217 235 220 209 200 179 156 144 154 182 195 199 221 191 189 230 233 234 225 232 250 209 229 273 345 308 272 287 188 236 253 245 250 246 252 252 253 259 268 258 242 238 235 212 203 208 208 207
206 208 209 195 195 199 206 218 205 190 183 164 160 275 186 189 199 222 219 233 184 230 220 224 242 226 241 233 212 195 178 312 256 347 283 265 296 279 263 254 259 262 255 250 252 258 245 227 230 213 206 201 202 201
212 210 206 195 193 197 201 210 193 186 172 155 258 304 192 190 222 213 179 213 205 206 232 233 264 248 223 233 226 175 206 222 188 213 234 245 296 294 307 301 286 269 258 256 250 238 240 226 222 211 200 197 192 191
212 209 207 203 199 195 194 197 188 183 168 188 167 240 218 205 231 209 184 200 226 253 290 290 280 247 229 200 203 214 219 164 258 227 236 272 341 332 335 322 297 285 260 250 248 228 226 216 208 201 200 190 185 184
212 210 211 205 199 197 193 187 185 184 188 192 205 223 224 244 263 275 261 282 291 301 305 289 253 222 246 258 213 211 205 237 224 239 311 329 327 325 327 332 322 284 272 249 241 227 217 207 202 188 183 179 173 162
202 216 215 202 198 195 187 178 182 192 212 220 228 272 267 288 290 275 257 254 340 338 321 250 263 245 222 224 244 216 218 220 274 305 319 320 325 328 328 322 327 288 267 251 231 217 212 203 187 177 170 171 163 161
202 215 201 191 192 186 182 179 174 201 222 217 227 224 241 275 273 282 297 305 328 316 279 334 261 244 277 219 235 242 347 304 294 307 324 326 328 324 317 314 313 294 261 249 214 201 192 182 171 166 165 164 168 164
203 198 183 168 170 165 175 186 186 227 232 230 232 245 241 244 262 276 287 285 302 307 296 228 268 235 231 230 216 217 252 323 328 322 327 323 321 325 313 306 288 285 249 220 197 185 178 167 168 167 162 166 171 175
189 188 200 183 181 174 176 199 206 250 234 233 243 247 245 255 262 270 276 282 279 271 267 233 216 221 229 226 240 283 302 306 315 317 316 323 325 331 312 302 283 248 220 197 185 173 168 168 166 162 165 172 174 179
176 189 183 183 188 177 200 238 194 241 242 229 231 239 241 251 271 275 276 271 260 254 217 223 197 220 240 264 281 293 299 304 305 305 307 324 325 332 332 304 230 209 187 176 170 166 160 159 162 161 167 169 178 170
185 179 179 189 186 196 227 236 225 237 255 240 255 244 241 241 250 271 270 266 245 227 237 234 238 243 253 268 281 287 293 293 298 303 301 308 317 329 324 261 184 182 174 165 156 159 158 165 162 165 171 176 168 169
187 172 173 179 167 205 247 230 224 230 242 243 248 248 251 245 256 264 263 238 237 243 239 243 244 247 251 261 270 278 287 288 288 292 296 306 310 316 300 202 177 159 145 141 158 171 167 168 162 169 173 172 171 172
184 181 166 188 205 232 252 226 225 226 231 243 239 226 245 233 249 269 223 234 242 244 245 248 252 252 252 261 267 273 279 280 278 288 294 296 301 318 216 176 182 158 165 186 190 171 162 166 170 176 177 173 179 193
174 162 181 203 210 261 240 222 220 244 234 232 234 246 250 237 252 223 239 244 251 251 243 246 244 240 247 255 259 265 265 267 270 282 283 285 282 217 204 177 183 184 183 186 174 170 173 176 182 183 178 185 185 196
151 197 193 223 229 237 242 243 211 220 240 223 228 240 254 240 239 261 255 265 260 251 244 239 235 236 240 250 266 261 260 257 267 267 272 266 255 229 190 185 206 190 210 194 181 185 186 183 176 178 189 191 187 172
198 204 193 207 213 206 225 251 222 225 232 220 232 244 240 215 233 244 241 297 292 263 243 236 230 232 238 248 255 255 264 258 242 259 265 244 238 219 213 209 202 207 203 198 189 179 172 173 180 190 192 185 177 186
243 238 224 229 239 253 256 270 273 261 244 247 226 215 208 230 238 249 303 352 323 298 248 232 245 228 225 234 247 255 244 243 255 251 234 228 230 210 197 180 211 213 184 176 170 174 180 183 188 192 191 182 175 217
230 247 221 237 227 244 253 245 240 263 266 277 244 219 234 229 272 315 293 296 358 358 62 165 197 212 223 237 230 213 228 233 196 202 226 218 198 187 183 198 183 161 157 157 168 168 167 166 183 197 192 185 187 203
235 235 239 260 265 259 247 227 261 245 250 248 289 272 293 285 311 316 2 270 251 273 286 248 216 208 194 189 191 201 202 177 173 165 149 139 154 159 153 156 152 151 171 179 162 164 163 174 186 186 182 178 174 156
248 241 236 240 228 247 239 232 271 308 320 335 306 281 303 309 9 41 42 2 250 257 199 207 193 198 199 189 181 179 154 130 152 158 149 140 138 135 139 147 160 152 156 168 170 161 164 170 172 176 171 163 165 160
251 223 232 234 251 244 256 281 303 339 21 19 7 347 355 1 17 42 29 29 49 122 152 140 165 178 166 157 164 153 129 139 144 140 125 124 125 138 145 132 125 123 133 153 164 173 181 185 186 174 175 166 170 178
204 207 216 256 267 242 251 289 316 350 4 19 16 19 21 7 16 21 17 29 46 69 93 113 127 151 157 165 157 150 130 143 160 153 135 139 148 153 141 124 108 109 122 141 163 175 181 178 183 189 173 166 172 171
236 233 221 226 232 262 244 281 294 22 30 16 21 16 10 7 11 7 11 28 31 48 83 94 119 125 101 117 145 132 116 128 150 148 177 175 153 154 141 123 109 111 110 125 140 152 157 156 155 161 167 173 181 198